| time (UTC) | temp C | wind direction | speed KPH | gust KPH | rain 1hr cm | rain 24hr cm | rain mn cm | humidity % | barometer mb |
| 20260504150522 | 7 | 78 | 12.9 | 27.4 | 0.00 | 0.00 | 0.00 | 50 | 1013.4 |
| 20260504141022 | 6 | 71 | 14.5 | 24.1 | 0.00 | 0.00 | 0.00 | 53 | 1013.3 |
| 20260504140521 | 6 | 74 | 14.5 | 25.7 | 0.00 | 0.00 | 0.00 | 53 | 1013.3 |
| 20260504130521 | 5 | 88 | 6.4 | 12.9 | 0.00 | 0.00 | 0.00 | 57 | 1012.3 |
| 20260504110519 | 6 | 248 | 0.0 | 3.2 | 0.00 | 0.00 | 0.00 | 55 | 1011.0 |
| 20260504100520 | 7 | 11 | 4.8 | 12.9 | 0.00 | 0.00 | 0.00 | 49 | 1011.0 |
| 20260504081542 | 7 | 53 | 0.0 | 6.4 | 0.00 | 0.00 | 0.00 | 48 | 1011.1 |
| 20260504081019 | 7 | 52 | 1.6 | 4.8 | 0.00 | 0.00 | 0.00 | 48 | 1011.0 |
| 20260504080522 | 7 | 0 | 1.6 | 4.8 | 0.00 | 0.00 | 0.00 | 47 | 1011.2 |
| 20260504050522 | 10 | 0 | 0.0 | 0.0 | 0.00 | 0.00 | 0.00 | 38 | 1011.6 |
| 20260504045522 | 11 | 0 | 0.0 | 3.2 | 0.00 | 0.00 | 0.00 | 37 | 1011.7 |
| 20260504045021 | 11 | 0 | 0.0 | 3.2 | 0.00 | 0.00 | 0.00 | 37 | 1011.6 |
| 20260504044542 | 11 | 159 | 0.0 | 4.8 | 0.00 | 0.00 | 0.00 | 37 | 1011.7 |
| 20260504044020 | 11 | 0 | 0.0 | 6.4 | 0.00 | 0.00 | 0.00 | 37 | 1011.7 |
| 20260504043520 | 11 | 0 | 1.6 | 9.7 | 0.00 | 0.00 | 0.00 | 36 | 1011.7 |
| 20260504043038 | 11 | 360 | 3.2 | 9.7 | 0.00 | 0.00 | 0.00 | 36 | 1011.7 |
| 20260504042518 | 11 | 360 | 3.2 | 9.7 | 0.00 | 0.00 | 0.00 | 36 | 1011.7 |
| 20260504042018 | 11 | 360 | 4.8 | 9.7 | 0.00 | 0.00 | 0.00 | 36 | 1011.7 |
| 20260504041548 | 12 | 360 | 3.2 | 6.4 | 0.00 | 0.00 | 0.00 | 35 | 1011.7 |
| 20260504041020 | 12 | 360 | 1.6 | 6.4 | 0.00 | 0.00 | 0.00 | 35 | 1011.8 |
| 20260504040522 | 12 | 360 | 1.6 | 4.8 | 0.00 | 0.00 | 0.00 | 34 | 1011.8 |
| 20260504040047 | 12 | 360 | 1.6 | 6.4 | 0.00 | 0.00 | 0.00 | 33 | 1011.8 |
| 20260504035521 | 12 | 360 | 3.2 | 6.4 | 0.00 | 0.00 | 0.00 | 33 | 1011.8 |
| 20260504035021 | 12 | 360 | 3.2 | 8.0 | 0.00 | 0.00 | 0.00 | 33 | 1011.8 |
| 20260504034546 | 12 | 360 | 3.2 | 8.0 | 0.00 | 0.00 | 0.00 | 33 | 1011.8 |
| 20260504034021 | 13 | 360 | 3.2 | 8.0 | 0.00 | 0.00 | 0.00 | 33 | 1011.8 |
| 20260504033525 | 13 | 360 | 1.6 | 6.4 | 0.00 | 0.00 | 0.00 | 32 | 1011.8 |
| 20260504033041 | 13 | 360 | 3.2 | 6.4 | 0.00 | 0.00 | 0.00 | 32 | 1011.7 |
| 20260504032520 | 13 | 360 | 1.6 | 6.4 | 0.00 | 0.00 | 0.00 | 31 | 1011.6 |
| 20260504032020 | 13 | 360 | 1.6 | 4.8 | 0.00 | 0.00 | 0.00 | 31 | 1011.6 |
| 20260504031536 | 14 | 0 | 0.0 | 4.8 | 0.00 | 0.00 | 0.00 | 30 | 1011.6 |
| 20260504031021 | 14 | 0 | 0.0 | 3.2 | 0.00 | 0.00 | 0.00 | 30 | 1011.6 |
| 20260504030520 | 15 | 0 | 0.0 | 6.4 | 0.00 | 0.00 | 0.00 | 29 | 1011.6 |
| 20260504030045 | 15 | 360 | 1.6 | 6.4 | 0.00 | 0.00 | 0.00 | 29 | 1011.6 |
| 20260504025522 | 15 | 360 | 1.6 | 6.4 | 0.00 | 0.00 | 0.00 | 29 | 1011.5 |
| 20260504025022 | 15 | 360 | 1.6 | 6.4 | 0.00 | 0.00 | 0.00 | 29 | 1011.5 |
| 20260504024542 | 15 | 360 | 1.6 | 6.4 | 0.00 | 0.00 | 0.00 | 29 | 1011.5 |
| 20260504024024 | 15 | 360 | 3.2 | 6.4 | 0.00 | 0.00 | 0.00 | 29 | 1011.4 |
| 20260504023521 | 15 | 360 | 1.6 | 6.4 | 0.00 | 0.00 | 0.00 | 30 | 1011.3 |
| 20260504023040 | 15 | 360 | 1.6 | 8.0 | 0.00 | 0.00 | 0.00 | 30 | 1011.3 |
| 20260504022521 | 15 | 360 | 3.2 | 8.0 | 0.00 | 0.00 | 0.00 | 31 | 1011.3 |
| 20260504022023 | 15 | 360 | 4.8 | 12.9 | 0.00 | 0.00 | 0.00 | 31 | 1011.3 |
| 20260504021542 | 15 | 360 | 6.4 | 14.5 | 0.00 | 0.00 | 0.00 | 31 | 1011.3 |
| 20260504021020 | 15 | 360 | 8.0 | 14.5 | 0.00 | 0.00 | 0.00 | 30 | 1011.3 |
| 20260504020520 | 16 | 360 | 4.8 | 9.7 | 0.00 | 0.00 | 0.00 | 29 | 1011.3 |
| 20260504020044 | 16 | 360 | 6.4 | 9.7 | 0.00 | 0.00 | 0.00 | 28 | 1011.3 |
| 20260504015521 | 17 | 360 | 1.6 | 12.9 | 0.00 | 0.00 | 0.00 | 28 | 1011.3 |
| 20260504015027 | 17 | 0 | 3.2 | 12.9 | 0.00 | 0.00 | 0.00 | 26 | 1011.2 |
| 20260504014559 | 17 | 275 | 9.7 | 12.9 | 0.00 | 0.00 | 0.00 | 25 | 1011.2 |
| 20260504014024 | 17 | 295 | 4.8 | 12.9 | 0.00 | 0.00 | 0.00 | 25 | 1011.2 |
| 20260504013525 | 17 | 283 | 6.4 | 12.9 | 0.00 | 0.00 | 0.00 | 26 | 1011.3 |
| 20260504013045 | 17 | 291 | 3.2 | 12.9 | 0.00 | 0.00 | 0.00 | 25 | 1011.3 |
| 20260504012522 | 17 | 291 | 6.4 | 12.9 | 0.00 | 0.00 | 0.00 | 26 | 1011.3 |
| 20260504012021 | 17 | 360 | 6.4 | 12.9 | 0.00 | 0.00 | 0.00 | 26 | 1011.3 |
| 20260504011543 | 17 | 360 | 4.8 | 17.7 | 0.00 | 0.00 | 0.00 | 25 | 1011.4 |
| 20260504011019 | 17 | 360 | 6.4 | 17.7 | 0.00 | 0.00 | 0.00 | 25 | 1011.4 |
| 20260504010519 | 17 | 360 | 6.4 | 20.9 | 0.00 | 0.00 | 0.00 | 24 | 1011.4 |
| 20260504010056 | 17 | 360 | 6.4 | 20.9 | 0.00 | 0.00 | 0.00 | 24 | 1011.4 |
| 20260504005525 | 18 | 360 | 14.5 | 20.9 | 0.00 | 0.00 | 0.00 | 24 | 1011.4 |
| 20260504005021 | 18 | 280 | 11.3 | 17.7 | 0.00 | 0.00 | 0.00 | 24 | 1011.5 |
| 20260504004543 | 18 | 360 | 9.7 | 17.7 | 0.00 | 0.00 | 0.00 | 24 | 1011.5 |
| 20260504004022 | 18 | 360 | 9.7 | 19.3 | 0.00 | 0.00 | 0.00 | 25 | 1011.5 |
| 20260504003521 | 18 | 360 | 4.8 | 29.0 | 0.00 | 0.00 | 0.00 | 23 | 1011.5 |
| 20260504003049 | 18 | 360 | 16.1 | 29.0 | 0.00 | 0.00 | 0.00 | 23 | 1011.4 |
| 20260504002520 | 18 | 360 | 17.7 | 27.4 | 0.00 | 0.00 | 0.00 | 23 | 1011.5 |
| 20260504002020 | 18 | 360 | 14.5 | 22.5 | 0.00 | 0.00 | 0.00 | 22 | 1011.5 |
| 20260504001543 | 19 | 360 | 16.1 | 27.4 | 0.00 | 0.00 | 0.00 | 22 | 1011.5 |
| 20260504001020 | 19 | 360 | 11.3 | 27.4 | 0.00 | 0.00 | 0.00 | 23 | 1011.6 |
| 20260504000520 | 18 | 360 | 17.7 | 27.4 | 0.00 | 0.00 | 0.00 | 23 | 1011.5 |
| 20260504000041 | 18 | 360 | 16.1 | 24.1 | 0.00 | 0.00 | 0.00 | 23 | 1011.6 |
| 20260503235519 | 18 | 360 | 17.7 | 24.1 | 0.00 | 0.00 | 0.00 | 23 | 1011.6 |
| 20260503235019 | 18 | 360 | 11.3 | 20.9 | 0.00 | 0.00 | 0.00 | 23 | 1011.7 |
| 20260503234549 | 18 | 360 | 11.3 | 20.9 | 0.00 | 0.00 | 0.00 | 22 | 1011.7 |
| 20260503234019 | 19 | 360 | 14.5 | 20.9 | 0.00 | 0.00 | 0.00 | 21 | 1011.7 |
| 20260503233521 | 18 | 360 | 11.3 | 22.5 | 0.00 | 0.00 | 0.00 | 21 | 1011.6 |
| 20260503233041 | 19 | 360 | 12.9 | 22.5 | 0.00 | 0.00 | 0.00 | 22 | 1011.7 |
| 20260503232519 | 20 | 360 | 8.0 | 16.1 | 0.00 | 0.00 | 0.00 | 22 | 1011.6 |
| 20260503232021 | 20 | 198 | 3.2 | 22.5 | 0.00 | 0.00 | 0.00 | 22 | 1011.7 |
| 20260503231542 | 20 | 273 | 11.3 | 24.1 | 0.00 | 0.00 | 0.00 | 22 | 1011.8 |
| 20260503231022 | 20 | 281 | 14.5 | 24.1 | 0.00 | 0.00 | 0.00 | 21 | 1011.8 |
| 20260503230525 | 20 | 273 | 3.2 | 32.2 | 0.00 | 0.00 | 0.00 | 23 | 1011.8 |
| 20260503230043 | 20 | 286 | 16.1 | 32.2 | 0.00 | 0.00 | 0.00 | 22 | 1011.9 |
| 20260503225521 | 20 | 295 | 9.7 | 27.4 | 0.00 | 0.00 | 0.00 | 22 | 1011.9 |
| 20260503225022 | 20 | 288 | 8.0 | 25.7 | 0.00 | 0.00 | 0.00 | 22 | 1011.8 |
| 20260503224539 | 20 | 256 | 12.9 | 25.7 | 0.00 | 0.00 | 0.00 | 22 | 1011.9 |
| 20260503224020 | 20 | 301 | 6.4 | 20.9 | 0.00 | 0.00 | 0.00 | 22 | 1012.0 |
| 20260503223523 | 20 | 0 | 3.2 | 19.3 | 0.00 | 0.00 | 0.00 | 23 | 1012.1 |
| 20260503223042 | 20 | 292 | 11.3 | 19.3 | 0.00 | 0.00 | 0.00 | 23 | 1012.1 |
| 20260503222520 | 19 | 261 | 4.8 | 24.1 | 0.00 | 0.00 | 0.00 | 24 | 1012.1 |
| 20260503222024 | 20 | 288 | 12.9 | 24.1 | 0.00 | 0.00 | 0.00 | 22 | 1012.3 |
| 20260503221541 | 20 | 309 | 9.7 | 32.2 | 0.00 | 0.00 | 0.00 | 22 | 1012.3 |
| 20260503221018 | 20 | 360 | 12.9 | 32.2 | 0.00 | 0.00 | 0.00 | 23 | 1012.3 |
| 20260503220524 | 20 | 282 | 17.7 | 30.6 | 0.00 | 0.00 | 0.00 | 23 | 1012.3 |
| 20260503220047 | 20 | 326 | 20.9 | 30.6 | 0.00 | 0.00 | 0.00 | 24 | 1012.4 |
| 20260503215520 | 20 | 284 | 17.7 | 27.4 | 0.00 | 0.00 | 0.00 | 22 | 1012.5 |
| 20260503215020 | 19 | 196 | 8.0 | 22.5 | 0.00 | 0.00 | 0.00 | 23 | 1012.6 |
| 20260503214535 | 19 | 265 | 6.4 | 24.1 | 0.00 | 0.00 | 0.00 | 23 | 1012.7 |
| 20260503214020 | 19 | 360 | 14.5 | 24.1 | 0.00 | 0.00 | 0.00 | 24 | 1012.9 |
| 20260503213521 | 20 | 360 | 14.5 | 24.1 | 0.00 | 0.00 | 0.00 | 23 | 1013.0 |
| 20260503213050 | 18 | 281 | 11.3 | 17.7 | 0.00 | 0.00 | 0.00 | 25 | 1013.1 |
| 20260503212521 | 18 | 277 | 6.4 | 25.7 | 0.00 | 0.00 | 0.00 | 24 | 1013.1 |
| 20260503212021 | 18 | 360 | 8.0 | 25.7 | 0.00 | 0.00 | 0.00 | 25 | 1013.3 |
| 20260503211541 | 18 | 360 | 9.7 | 30.6 | 0.00 | 0.00 | 0.00 | 25 | 1013.4 |
| 20260503211021 | 18 | 360 | 19.3 | 30.6 | 0.00 | 0.00 | 0.00 | 24 | 1013.5 |
| 20260503210520 | 18 | 283 | 12.9 | 32.2 | 0.00 | 0.00 | 0.00 | 24 | 1013.5 |
| 20260503210040 | 18 | 360 | 16.1 | 32.2 | 0.00 | 0.00 | 0.00 | 24 | 1013.5 |
| 20260503205519 | 17 | 274 | 8.0 | 19.3 | 0.00 | 0.00 | 0.00 | 25 | 1013.5 |
| 20260503205019 | 17 | 288 | 12.9 | 19.3 | 0.00 | 0.00 | 0.00 | 25 | 1013.7 |
| 20260503204539 | 18 | 298 | 4.8 | 17.7 | 0.00 | 0.00 | 0.00 | 25 | 1013.7 |
| 20260503204020 | 18 | 360 | 9.7 | 20.9 | 0.00 | 0.00 | 0.00 | 24 | 1013.8 |
| 20260503203521 | 18 | 360 | 11.3 | 20.9 | 0.00 | 0.00 | 0.00 | 24 | 1013.9 |
| 20260503203045 | 19 | 360 | 8.0 | 20.9 | 0.00 | 0.00 | 0.00 | 23 | 1013.9 |
| 20260503202521 | 19 | 296 | 11.3 | 30.6 | 0.00 | 0.00 | 0.00 | 23 | 1014.0 |
| 20260503202022 | 19 | 276 | 11.3 | 30.6 | 0.00 | 0.00 | 0.00 | 22 | 1014.0 |
| 20260503201542 | 18 | 360 | 14.5 | 30.6 | 0.00 | 0.00 | 0.00 | 24 | 1014.0 |
| 20260503201020 | 18 | 360 | 16.1 | 29.0 | 0.00 | 0.00 | 0.00 | 23 | 1014.1 |
| 20260503200520 | 17 | 360 | 4.8 | 33.8 | 0.00 | 0.00 | 0.00 | 25 | 1014.1 |
| 20260503200047 | 17 | 360 | 17.7 | 33.8 | 0.00 | 0.00 | 0.00 | 24 | 1014.2 |
| 20260503195520 | 18 | 360 | 6.4 | 20.9 | 0.00 | 0.00 | 0.00 | 24 | 1014.2 |
| 20260503195020 | 18 | 360 | 12.9 | 25.7 | 0.00 | 0.00 | 0.00 | 24 | 1014.3 |
| 20260503194542 | 17 | 360 | 14.5 | 25.7 | 0.00 | 0.00 | 0.00 | 25 | 1014.3 |
| 20260503194020 | 17 | 360 | 11.3 | 24.1 | 0.00 | 0.00 | 0.00 | 25 | 1014.2 |
| 20260503193520 | 17 | 360 | 9.7 | 19.3 | 0.00 | 0.00 | 0.00 | 26 | 1014.3 |
| 20260503193043 | 17 | 360 | 11.3 | 19.3 | 0.00 | 0.00 | 0.00 | 25 | 1014.4 |
| 20260503192520 | 17 | 360 | 4.8 | 20.9 | 0.00 | 0.00 | 0.00 | 24 | 1014.4 |
| 20260503192021 | 18 | 297 | 12.9 | 20.9 | 0.00 | 0.00 | 0.00 | 25 | 1014.5 |
| 20260503191542 | 18 | 245 | 4.8 | 22.5 | 0.00 | 0.00 | 0.00 | 25 | 1014.6 |
| 20260503191021 | 17 | 360 | 8.0 | 22.5 | 0.00 | 0.00 | 0.00 | 25 | 1014.6 |
| 20260503190520 | 17 | 360 | 4.8 | 17.7 | 0.00 | 0.00 | 0.00 | 25 | 1014.7 |
| 20260503190042 | 17 | 360 | 6.4 | 22.5 | 0.00 | 0.00 | 0.00 | 25 | 1014.8 |
| 20260503185520 | 18 | 360 | 8.0 | 22.5 | 0.00 | 0.00 | 0.00 | 24 | 1015.0 |
| 20260503185023 | 18 | 360 | 9.7 | 22.5 | 0.00 | 0.00 | 0.00 | 25 | 1015.0 |
| 20260503184555 | 18 | 360 | 9.7 | 33.8 | 0.00 | 0.00 | 0.00 | 23 | 1014.9 |
| 20260503184019 | 18 | 360 | 11.3 | 33.8 | 0.00 | 0.00 | 0.00 | 24 | 1015.1 |
| 20260503183517 | 18 | 360 | 8.0 | 27.4 | 0.00 | 0.00 | 0.00 | 24 | 1015.1 |
| 20260503183051 | 18 | 360 | 16.1 | 27.4 | 0.00 | 0.00 | 0.00 | 24 | 1015.2 |
| 20260503182520 | 17 | 360 | 12.9 | 33.8 | 0.00 | 0.00 | 0.00 | 25 | 1015.2 |
| 20260503182021 | 17 | 360 | 19.3 | 33.8 | 0.00 | 0.00 | 0.00 | 24 | 1015.2 |
| 20260503181534 | 17 | 360 | 20.9 | 38.6 | 0.00 | 0.00 | 0.00 | 25 | 1015.3 |
| 20260503181021 | 17 | 360 | 25.7 | 38.6 | 0.00 | 0.00 | 0.00 | 24 | 1015.4 |
| 20260503180521 | 17 | 360 | 11.3 | 35.4 | 0.00 | 0.00 | 0.00 | 24 | 1015.4 |
| 20260503180044 | 17 | 360 | 25.7 | 33.8 | 0.00 | 0.00 | 0.00 | 25 | 1015.3 |
| 20260503175521 | 17 | 360 | 19.3 | 32.2 | 0.00 | 0.00 | 0.00 | 27 | 1015.6 |
| 20260503175025 | 17 | 360 | 14.5 | 33.8 | 0.00 | 0.00 | 0.00 | 26 | 1015.5 |
| 20260503174541 | 17 | 360 | 20.9 | 37.0 | 0.00 | 0.00 | 0.00 | 25 | 1015.4 |
| 20260503174018 | 17 | 360 | 22.5 | 37.0 | 0.00 | 0.00 | 0.00 | 26 | 1015.6 |
| 20260503173524 | 17 | 360 | 17.7 | 33.8 | 0.00 | 0.00 | 0.00 | 27 | 1015.6 |
| 20260503173042 | 16 | 360 | 19.3 | 33.8 | 0.00 | 0.00 | 0.00 | 27 | 1015.6 |
| 20260503172521 | 16 | 360 | 16.1 | 29.0 | 0.00 | 0.00 | 0.00 | 27 | 1015.7 |
| 20260503172021 | 16 | 360 | 17.7 | 30.6 | 0.00 | 0.00 | 0.00 | 27 | 1015.9 |
| 20260503171546 | 16 | 360 | 20.9 | 30.6 | 0.00 | 0.00 | 0.00 | 28 | 1016.0 |
| 20260503171020 | 16 | 360 | 9.7 | 25.7 | 0.00 | 0.00 | 0.00 | 28 | 1016.0 |
| 20260503170521 | 16 | 360 | 16.1 | 25.7 | 0.00 | 0.00 | 0.00 | 29 | 1015.9 |